COSMOS 1275 DEB

Satellite information

Favourite Embed

Satellite Type and Status

DEBRISIN ORBIT

Key statistics

Satellite COSMOS 1275 DEB at a glance.

Uptime

16212

Days in orbit

Revolutions

≈ 14.2

Per day

Orbit

LEO

Low Earth Orbit

Inclination

82.9

Latest

Satellite identification and parameters

Extended collection of information and parameters for COSMOS 1275 DEB.

Object identification

Identified? True

Debris? True

Object name: COSMOS 1275 DEB

International designator: 1981-053KJ

Object number (NORAD): 17615

Object ID (CCSDS): 17615

Country: COMMONWEALTH OF INDEPENDENT STATES (CIS)

Current information (Y/N): Y

RCS size: SMALL

Orbital parameters

Period: 101.696 minutes

Inclination: 82.8543 deg

SMA: 7217.09 km

Apoapsis: 867.215 km

Periapsis: 810.695 km

RAAN: 300.0398 deg

Eccentricy: 0.00391568

Argument of periapsis: 3.1348 deg

Mean anomaly: 52.2702 deg

Mean motion: 14.15988056 rev/day

Mean motion (dot): 0.00003793 rev/day2

B* drag term: 0.0019023462 1/REarth

Two-line elements (TLE)

Creation date: Oct. 22, 2025, 5:40 p.m.

Reference frame: TEME

Reference center: EARTH

Epoch: Oct. 22, 2025, 1:05 a.m. UTC

TLE line 0: 0 COSMOS 1275 DEB

TLE line 1: 1 17615U 81053KJ 25295.04522375 .00003793 00000-0 19023-2 0 9997

TLE line 2: 2 17615 82.8543 300.0398 0039157 3.1348 52.2702 14.15988056 59479

Live tracking on map

Real-time ground track for satellite COSMOS 1275 DEB.

In-orbit conjunctions

A list of the most updated potential collisions computed for object COSMOS 1275 DEB.

Target Orbit TCA Probability of collision Miss distance Type
CZ-6A DEB SSO 2024-12-25 05:21:53 0.0001158104 155.0 (m) DEBRIS
COSMOS 1275 DEB LEO 2024-11-13 06:21:00 0.0005410868 740.0 (m) DEBRIS

Associated space launch

Navigation satellite providing location information for the Tsiklon-B navigation system

COSMOS 1275 DEB was lifted into orbit during the mission ‘Kosmos-3M | Parus 27’, on board a Kosmos-3M space rocket.

The launch took place on June 4, 1981, 3:41 p.m. from 132/2.

For more information about the launch, click the button.

Launch to space Kosmos-3M | Parus 27
Kosmos-3M | Parus 27

Agency: N/A

Status: Launch Successful

Launch date: June 4, 1981, 3:41 p.m. UTC

Rocket: Kosmos-3M

Launch pad: 132/2

Location: Plesetsk Cosmodrome, Russian Federation

...

Latest news about this satellite

There are no fresh news available about this satellite. Check back as we update our databases every day.


Newsletter sign-up

Weekly statistics, charts and insights to help you stay on top of the space industry.